Flag for U.S.A. Weather past 2 weeks in Sandpoint, Idaho, U.S.A.

Now
50 °F

Passing clouds.


Feels Like: 50 °F
Forecast: 52 / 71 °F
Wind: No wind

Location: Sandpoint Airport

Current Time: Aug 21, 2014 at 3:30:33 AM

Latest Report: Aug 21, 2014 at 2:55 AM


Visibility: 10 mi

Pressure: 29.97 "Hg

Humidity: 100%

Dew point: 50 °F

Location of SandpointLocation

Historic Weather in Sandpoint — Graph

°F

Sandpoint temperature yesterday

Maximum temperature yesterday: 73 °F (at 3:15 PM)
Minimum temperature yesterday: 54 °F (at 5:55 AM)
Average temperature yesterday: 62 °F

Past Weeks' High & Low Weather Summary

 TemperatureHumidityPressure
High93 °F (Aug 11, 2:35 PM)100% (Aug 6, 3:15 AM)30.19 "Hg (Aug 6, 3:15 AM)
Low46 °F (Aug 9, 3:55 AM)14% (Aug 11, 4:55 PM)29.69 "Hg (Aug 19, 4:15 PM)
Average66 °F71%29.98 "Hg
* Reported Aug 6 2:15 AM — Aug 21 2:35 AM, Sandpoint, Weather by CustomWeather, © 2014

Note: Actual official high and low records may vary slightly from our data, if they occured in-between our weather recording intervals... More about our weather records

Advertising

Sandpoint weather history for previous 24 hours

 ConditionsComfort  
Time TempWeatherWind HumidityBarometerVisibility
2:35 AM
Aug 21
52 °FFog.No wind100%29.96 "Hg2 mi
2:15 AM52 °FClear.No wind100%29.96 "Hg7 mi
1:55 AM52 °FClear.No wind100%29.96 "Hg7 mi
1:35 AM52 °FFog.No wind100%29.95 "Hg3 mi
1:15 AM54 °FClear.No wind100%29.95 "Hg10 mi
12:55 AM54 °FClear.No wind100%29.94 "Hg10 mi
12:35 AM55 °FClear.3 mph100%29.94 "Hg10 mi
12:15 AM55 °FClear.No wind100%29.93 "Hg10 mi
11:55 PM
Aug 20
55 °FClear.3 mph100%29.93 "Hg10 mi
11:35 PM57 °FClear.No wind100%29.92 "Hg10 mi
10:55 PM59 °FClear.9 mph100%29.91 "Hg10 mi
10:35 PM59 °FClear.8 mph100%29.91 "Hg10 mi
9:55 PM59 °FPartly cloudy.9 mph100%29.92 "Hg10 mi
9:35 PM59 °FMostly cloudy.6 mph100%29.92 "Hg10 mi
9:15 PM59 °FLight rain. Partly cloudy.3 mph100%29.91 "Hg10 mi
8:55 PM59 °FHeavy rain. Overcast.3 mph100%29.91 "Hg5 mi
8:35 PM59 °FRain. Cloudy.No wind100%29.91 "Hg10 mi
8:15 PM59 °FRain. More clouds than sun.5 mph100%29.90 "Hg10 mi
7:55 PM61 °FLight rain. Overcast.No wind100%29.90 "Hg10 mi
7:35 PM59 °FLight rain. Mostly cloudy.No wind100%29.88 "Hg10 mi
7:15 PM59 °FLight rain. More clouds than sun.No wind100%29.87 "Hg10 mi
6:55 PM61 °FDrizzle. Cloudy.7 mph100%29.87 "Hg10 mi
6:35 PM61 °FLight rain. Broken clouds.7 mph100%29.86 "Hg10 mi
6:15 PM63 °FScattered clouds.3 mph100%29.84 "Hg10 mi
5:55 PM61 °FOvercast.6 mph100%29.84 "Hg10 mi
5:35 PM61 °FOvercast.No wind100%29.86 "Hg10 mi
4:55 PM61 °FHeavy rain. More clouds than sun.5 mph100%29.86 "Hg2 mi
4:35 PM64 °FRain. Overcast.14 mph83%29.83 "Hg10 mi
4:15 PM66 °FOvercast.13 mph88%29.83 "Hg10 mi
3:55 PM68 °FLight rain. Mostly cloudy.7 mph73%29.83 "Hg10 mi
3:35 PM70 °FBroken clouds.8 mph57%29.83 "Hg10 mi
3:15 PM73 °FBroken clouds.9 mph57%29.83 "Hg10 mi
2:55 PM72 °FScattered clouds.7 mph65%29.83 "Hg10 mi
2:35 PM72 °FScattered clouds.8 mph69%29.83 "Hg10 mi
1:55 PM66 °FHeavy rain. Cloudy.No wind83%29.84 "Hg2 mi
1:35 PM70 °FBroken clouds.7 mph60%29.84 "Hg10 mi
1:15 PM70 °FSunny.5 mph60%29.84 "Hg10 mi
12:55 PM72 °FScattered clouds.6 mph57%29.83 "Hg10 mi
12:35 PM70 °FMostly cloudy.5 mph60%29.83 "Hg10 mi
12:15 PM70 °FPartly sunny.6 mph60%29.84 "Hg10 mi
11:55 AM70 °FBroken clouds.6 mph60%29.84 "Hg10 mi
11:35 AM68 °FCloudy.6 mph64%29.84 "Hg10 mi
10:55 AM68 °FPartly sunny.5 mph64%29.84 "Hg10 mi
10:35 AM68 °FPartly sunny.3 mph64%29.84 "Hg10 mi
10:15 AM66 °FScattered clouds.3 mph68%29.84 "Hg10 mi
9:55 AM66 °FScattered clouds.5 mph68%29.84 "Hg10 mi
9:35 AM66 °FScattered clouds.No wind68%29.84 "Hg10 mi
9:15 AM64 °FSunny.No wind78%29.83 "Hg10 mi
8:55 AM64 °FSunny.No wind78%29.83 "Hg10 mi
8:35 AM63 °FSunny.No wind77%29.82 "Hg10 mi
8:15 AM61 °FSunny.No wind88%29.82 "Hg10 mi
7:55 AM59 °FSunny.No wind100%29.82 "Hg10 mi
7:35 AM59 °FSunny.No wind100%29.81 "Hg10 mi
7:15 AM55 °FSunny.No wind100%29.81 "Hg10 mi
6:55 AM54 °FSunny.No wind100%29.80 "Hg10 mi
6:35 AM54 °FClear.No wind100%29.80 "Hg7 mi
5:55 AM54 °FClear.No wind100%29.78 "Hg10 mi
5:35 AM55 °FClear.No wind100%29.78 "Hg10 mi
4:55 AM55 °FPassing clouds.3 mph100%29.76 "Hg10 mi
4:35 AM57 °FPassing clouds.10 mph100%29.75 "Hg10 mi
4:15 AM57 °FPartly cloudy.5 mph100%29.76 "Hg10 mi
3:55 AM59 °FClear.7 mph100%29.74 "Hg10 mi
3:35 AM59 °FPassing clouds.7 mph100%29.74 "Hg10 mi
3:15 AM57 °FPartly cloudy.6 mph100%29.74 "Hg10 mi
Weather by CustomWeather, © 2014

See weather overviewHow to use our weather pages